| time (UTC) | temp F | wind direction | speed MPH | gust MPH | rain 1hr in | rain 24hr in | rain mn in | humidity % | barometer mb |
| 20260505200103 | 89 | 218 | 4.0 | 10.0 | 0.00 | 0.00 | 0.00 | 59 | 1004.0 |
| 20260505195559 | 89 | 124 | 5.0 | 10.0 | 0.00 | 0.00 | 0.00 | 57 | 1004.0 |
| 20260505195059 | 89 | 254 | 4.0 | 10.0 | 0.00 | 0.00 | 0.00 | 60 | 1004.0 |
| 20260505194612 | 88 | 168 | 6.0 | 10.0 | 0.00 | 0.00 | 0.00 | 58 | 1004.0 |
| 20260505194059 | 88 | 224 | 4.0 | 10.0 | 0.00 | 0.00 | 0.00 | 59 | 1004.1 |
| 20260505193603 | 88 | 20 | 3.0 | 11.0 | 0.00 | 0.00 | 0.00 | 60 | 1004.3 |
| 20260505193059 | 88 | 142 | 4.0 | 11.0 | 0.00 | 0.00 | 0.00 | 60 | 1004.3 |
| 20260505192600 | 88 | 213 | 6.0 | 11.0 | 0.00 | 0.00 | 0.00 | 60 | 1004.2 |
| 20260505192100 | 88 | 107 | 5.0 | 11.0 | 0.00 | 0.00 | 0.00 | 61 | 1004.1 |
| 20260505191600 | 88 | 101 | 4.0 | 15.0 | 0.00 | 0.00 | 0.00 | 62 | 1003.9 |
| 20260505191059 | 87 | 88 | 5.0 | 15.0 | 0.00 | 0.00 | 0.00 | 63 | 1004.0 |
| 20260505190559 | 86 | 187 | 6.0 | 11.0 | 0.00 | 0.00 | 0.00 | 62 | 1004.1 |
| 20260505190058 | 86 | 248 | 7.0 | 11.0 | 0.00 | 0.00 | 0.00 | 64 | 1004.0 |
| 20260505185604 | 85 | 178 | 6.0 | 11.0 | 0.00 | 0.00 | 0.00 | 65 | 1004.2 |
| 20260505185100 | 85 | 172 | 6.0 | 12.0 | 0.00 | 0.00 | 0.00 | 66 | 1004.0 |
| 20260505184558 | 84 | 257 | 6.0 | 12.0 | 0.00 | 0.00 | 0.00 | 66 | 1004.0 |
| 20260505184100 | 84 | 203 | 5.0 | 10.0 | 0.00 | 0.00 | 0.00 | 65 | 1004.1 |
| 20260505183603 | 84 | 212 | 5.0 | 14.0 | 0.00 | 0.00 | 0.00 | 64 | 1004.1 |
| 20260505183058 | 85 | 164 | 4.0 | 14.0 | 0.00 | 0.00 | 0.00 | 64 | 1004.3 |
| 20260505182559 | 85 | 167 | 5.0 | 13.0 | 0.00 | 0.00 | 0.00 | 64 | 1004.3 |
| 20260505182100 | 85 | 185 | 7.0 | 13.0 | 0.00 | 0.00 | 0.00 | 64 | 1004.3 |
| 20260505181601 | 85 | 209 | 4.0 | 13.0 | 0.00 | 0.00 | 0.00 | 65 | 1004.3 |
| 20260505181100 | 85 | 116 | 6.0 | 13.0 | 0.00 | 0.00 | 0.00 | 64 | 1004.2 |
| 20260505180600 | 84 | 210 | 4.0 | 11.0 | 0.00 | 0.00 | 0.00 | 65 | 1004.3 |
| 20260505175601 | 85 | 217 | 5.0 | 12.0 | 0.00 | 0.00 | 0.00 | 66 | 1004.3 |
| 20260505175101 | 85 | 196 | 5.0 | 11.0 | 0.00 | 0.00 | 0.00 | 66 | 1004.2 |
| 20260505174606 | 85 | 170 | 5.0 | 11.0 | 0.00 | 0.00 | 0.00 | 68 | 1004.3 |
| 20260505174100 | 84 | 232 | 4.0 | 11.0 | 0.00 | 0.00 | 0.00 | 67 | 1004.3 |
| 20260505173602 | 83 | 134 | 4.0 | 14.0 | 0.00 | 0.00 | 0.00 | 70 | 1004.2 |
| 20260505173100 | 83 | 200 | 6.0 | 14.0 | 0.00 | 0.00 | 0.00 | 69 | 1004.2 |
| 20260505172600 | 82 | 226 | 5.0 | 14.0 | 0.00 | 0.00 | 0.00 | 70 | 1004.2 |
| 20260505172100 | 81 | 205 | 5.0 | 14.0 | 0.00 | 0.00 | 0.00 | 71 | 1004.2 |
| 20260505171606 | 81 | 177 | 3.0 | 13.0 | 0.00 | 0.00 | 0.00 | 73 | 1004.3 |
| 20260505171103 | 81 | 148 | 7.0 | 13.0 | 0.00 | 0.00 | 0.00 | 72 | 1004.3 |
| 20260505170601 | 80 | 191 | 6.0 | 14.0 | 0.00 | 0.00 | 0.00 | 72 | 1004.3 |
| 20260505170059 | 80 | 160 | 5.0 | 14.0 | 0.00 | 0.00 | 0.00 | 73 | 1004.3 |
| 20260505165600 | 80 | 182 | 6.0 | 13.0 | 0.00 | 0.00 | 0.00 | 73 | 1004.3 |
| 20260505165100 | 79 | 207 | 6.0 | 13.0 | 0.00 | 0.00 | 0.00 | 73 | 1004.3 |
| 20260505164622 | 79 | 166 | 7.0 | 13.0 | 0.00 | 0.00 | 0.00 | 73 | 1004.3 |
| 20260505164102 | 80 | 117 | 4.0 | 11.0 | 0.00 | 0.00 | 0.00 | 73 | 1004.4 |
| 20260505163600 | 79 | 200 | 5.0 | 13.0 | 0.00 | 0.00 | 0.00 | 75 | 1004.2 |
| 20260505163107 | 79 | 187 | 5.0 | 13.0 | 0.00 | 0.00 | 0.00 | 75 | 1004.3 |
| 20260505162600 | 79 | 151 | 6.0 | 13.0 | 0.00 | 0.00 | 0.00 | 75 | 1004.3 |
| 20260505162100 | 78 | 196 | 4.0 | 9.0 | 0.00 | 0.00 | 0.00 | 75 | 1004.3 |
| 20260505161615 | 78 | 167 | 4.0 | 12.0 | 0.00 | 0.00 | 0.00 | 76 | 1004.2 |
| 20260505161100 | 78 | 147 | 5.0 | 12.0 | 0.00 | 0.00 | 0.00 | 76 | 1004.3 |
| 20260505160601 | 78 | 233 | 7.0 | 14.0 | 0.00 | 0.00 | 0.00 | 76 | 1004.1 |
| 20260505153107 | 77 | 167 | 7.0 | 14.0 | 0.00 | 0.00 | 0.00 | 77 | 1004.1 |
| 20260505152601 | 77 | 163 | 6.0 | 16.0 | 0.00 | 0.00 | 0.00 | 76 | 1004.2 |
| 20260505152101 | 77 | 209 | 7.0 | 16.0 | 0.00 | 0.00 | 0.00 | 77 | 1004.2 |
| 20260505151600 | 77 | 134 | 7.0 | 15.0 | 0.00 | 0.00 | 0.00 | 76 | 1004.0 |
| 20260505151104 | 77 | 212 | 8.0 | 14.0 | 0.00 | 0.00 | 0.00 | 77 | 1004.0 |
| 20260505150601 | 76 | 127 | 6.0 | 14.0 | 0.00 | 0.00 | 0.00 | 79 | 1004.0 |
| 20260505140602 | 73 | 169 | 6.0 | 11.0 | 0.00 | 0.00 | 0.00 | 82 | 1004.0 |
| 20260505130114 | 71 | 184 | 6.0 | 16.0 | 0.00 | 0.00 | 0.00 | 85 | 1003.8 |
| 20260505124617 | 71 | 213 | 7.0 | 14.0 | 0.00 | 0.00 | 0.00 | 86 | 1003.6 |
| 20260505124101 | 70 | 214 | 5.0 | 13.0 | 0.00 | 0.00 | 0.00 | 86 | 1003.4 |
| 20260505123600 | 70 | 210 | 6.0 | 13.0 | 0.00 | 0.00 | 0.00 | 86 | 1003.3 |
| 20260505123116 | 70 | 310 | 5.0 | 15.0 | 0.00 | 0.00 | 0.00 | 86 | 1003.1 |
| 20260505122602 | 70 | 176 | 7.0 | 15.0 | 0.00 | 0.00 | 0.00 | 86 | 1003.1 |
| 20260505122100 | 70 | 194 | 3.0 | 11.0 | 0.00 | 0.00 | 0.00 | 86 | 1003.2 |
| 20260505121600 | 70 | 169 | 5.0 | 12.0 | 0.00 | 0.00 | 0.00 | 86 | 1003.0 |
| 20260505121105 | 70 | 205 | 5.0 | 12.0 | 0.00 | 0.00 | 0.00 | 86 | 1002.8 |
| 20260505120600 | 70 | 172 | 5.0 | 11.0 | 0.00 | 0.00 | 0.00 | 86 | 1003.0 |
| 20260505120123 | 70 | 173 | 4.0 | 10.0 | 0.00 | 0.00 | 0.00 | 86 | 1003.1 |
| 20260505115559 | 69 | 207 | 4.0 | 10.0 | 0.00 | 0.00 | 0.00 | 87 | 1003.0 |
| 20260505115102 | 69 | 205 | 4.0 | 12.0 | 0.00 | 0.00 | 0.00 | 87 | 1003.0 |
| 20260505114602 | 69 | 184 | 4.0 | 12.0 | 0.00 | 0.00 | 0.00 | 87 | 1002.9 |
| 20260505114059 | 69 | 204 | 4.0 | 10.0 | 0.00 | 0.00 | 0.00 | 87 | 1002.9 |
| 20260505113559 | 69 | 170 | 5.0 | 10.0 | 0.00 | 0.00 | 0.00 | 86 | 1002.8 |
| 20260505113106 | 69 | 230 | 4.0 | 11.0 | 0.00 | 0.00 | 0.00 | 86 | 1002.8 |
| 20260505112604 | 69 | 208 | 3.0 | 11.0 | 0.00 | 0.00 | 0.00 | 86 | 1002.8 |
| 20260505112100 | 69 | 198 | 3.0 | 10.0 | 0.00 | 0.00 | 0.00 | 86 | 1002.8 |
| 20260505111559 | 69 | 127 | 4.0 | 10.0 | 0.00 | 0.00 | 0.00 | 86 | 1002.8 |
| 20260505111103 | 69 | 240 | 4.0 | 8.0 | 0.00 | 0.00 | 0.00 | 86 | 1002.8 |
| 20260505110559 | 69 | 209 | 3.0 | 8.0 | 0.00 | 0.00 | 0.00 | 86 | 1002.9 |
| 20260505110118 | 69 | 148 | 4.0 | 9.0 | 0.00 | 0.00 | 0.00 | 86 | 1002.9 |
| 20260505102100 | 70 | 206 | 8.0 | 13.0 | 0.00 | 0.00 | 0.00 | 85 | 1002.8 |
| 20260505101603 | 70 | 170 | 4.0 | 15.0 | 0.00 | 0.00 | 0.00 | 85 | 1003.0 |
| 20260505101100 | 70 | 165 | 8.0 | 15.0 | 0.00 | 0.00 | 0.00 | 85 | 1002.7 |
| 20260505100603 | 70 | 205 | 6.0 | 15.0 | 0.00 | 0.00 | 0.00 | 85 | 1002.6 |
| 20260505100059 | 70 | 224 | 6.0 | 15.0 | 0.00 | 0.00 | 0.00 | 85 | 1002.6 |
| 20260505095603 | 71 | 158 | 7.0 | 15.0 | 0.00 | 0.00 | 0.00 | 84 | 1002.7 |
| 20260505095059 | 71 | 205 | 7.0 | 15.0 | 0.00 | 0.00 | 0.00 | 84 | 1002.7 |
| 20260505094609 | 71 | 193 | 6.0 | 13.0 | 0.00 | 0.00 | 0.00 | 84 | 1002.7 |
| 20260505094059 | 71 | 186 | 5.0 | 13.0 | 0.00 | 0.00 | 0.00 | 84 | 1002.7 |
| 20260505093559 | 71 | 180 | 5.0 | 13.0 | 0.00 | 0.00 | 0.00 | 84 | 1002.7 |
| 20260505093109 | 71 | 84 | 7.0 | 15.0 | 0.00 | 0.00 | 0.00 | 84 | 1002.7 |
| 20260505092600 | 71 | 121 | 6.0 | 15.0 | 0.00 | 0.00 | 0.00 | 84 | 1002.8 |
| 20260505092100 | 71 | 124 | 8.0 | 16.0 | 0.00 | 0.00 | 0.00 | 83 | 1002.9 |
| 20260505091558 | 71 | 231 | 5.0 | 16.0 | 0.00 | 0.00 | 0.00 | 83 | 1002.9 |
| 20260505091100 | 71 | 219 | 6.0 | 17.0 | 0.00 | 0.00 | 0.00 | 83 | 1003.0 |
| 20260505090559 | 71 | 191 | 7.0 | 17.0 | 0.00 | 0.00 | 0.00 | 83 | 1003.1 |
| 20260505090101 | 71 | 136 | 8.0 | 17.0 | 0.00 | 0.00 | 0.00 | 83 | 1003.1 |
| 20260505085559 | 71 | 154 | 7.0 | 14.0 | 0.00 | 0.00 | 0.00 | 82 | 1003.1 |
| 20260505085100 | 72 | 177 | 7.0 | 19.0 | 0.00 | 0.00 | 0.00 | 82 | 1003.3 |
| 20260505084622 | 72 | 161 | 6.0 | 19.0 | 0.00 | 0.00 | 0.00 | 82 | 1003.2 |
| 20260505084059 | 72 | 188 | 8.0 | 15.0 | 0.00 | 0.00 | 0.00 | 82 | 1003.3 |
| 20260505083559 | 72 | 155 | 6.0 | 15.0 | 0.00 | 0.00 | 0.00 | 81 | 1003.3 |
| 20260505083103 | 72 | 184 | 7.0 | 15.0 | 0.00 | 0.00 | 0.00 | 81 | 1003.4 |
| 20260505082602 | 72 | 150 | 6.0 | 13.0 | 0.00 | 0.00 | 0.00 | 81 | 1003.4 |
| 20260505082100 | 72 | 191 | 6.0 | 13.0 | 0.00 | 0.00 | 0.00 | 80 | 1003.2 |
| 20260505081615 | 72 | 178 | 5.0 | 13.0 | 0.00 | 0.00 | 0.00 | 80 | 1003.2 |
| 20260505081100 | 72 | 195 | 6.0 | 11.0 | 0.00 | 0.00 | 0.00 | 80 | 1003.3 |
| 20260505080600 | 72 | 204 | 6.0 | 12.0 | 0.00 | 0.00 | 0.00 | 79 | 1003.2 |
| 20260505080109 | 73 | 204 | 6.0 | 12.0 | 0.00 | 0.00 | 0.00 | 79 | 1003.3 |
| 20260505075559 | 73 | 177 | 6.0 | 15.0 | 0.00 | 0.00 | 0.00 | 79 | 1003.3 |
| 20260505075059 | 73 | 196 | 7.0 | 15.0 | 0.00 | 0.00 | 0.00 | 78 | 1003.4 |
| 20260505074559 | 73 | 206 | 6.0 | 14.0 | 0.00 | 0.00 | 0.00 | 78 | 1003.5 |
| 20260505074100 | 73 | 207 | 7.0 | 14.0 | 0.00 | 0.00 | 0.00 | 78 | 1003.6 |
| 20260505073603 | 73 | 203 | 5.0 | 11.0 | 0.00 | 0.00 | 0.00 | 78 | 1003.6 |
| 20260505073059 | 73 | 179 | 5.0 | 10.0 | 0.00 | 0.00 | 0.00 | 77 | 1003.8 |
| 20260505072559 | 73 | 190 | 5.0 | 14.0 | 0.00 | 0.00 | 0.00 | 77 | 1003.9 |
| 20260505072100 | 73 | 187 | 6.0 | 14.0 | 0.00 | 0.00 | 0.00 | 77 | 1004.1 |
| 20260505071617 | 73 | 178 | 7.0 | 13.0 | 0.00 | 0.00 | 0.00 | 76 | 1004.0 |
| 20260505071100 | 73 | 214 | 6.0 | 18.0 | 0.00 | 0.00 | 0.00 | 76 | 1004.1 |
| 20260505070603 | 73 | 164 | 8.0 | 18.0 | 0.00 | 0.00 | 0.00 | 76 | 1004.2 |
| 20260505070111 | 74 | 202 | 6.0 | 12.0 | 0.00 | 0.00 | 0.00 | 76 | 1004.3 |
| 20260505065559 | 74 | 121 | 6.0 | 17.0 | 0.00 | 0.00 | 0.00 | 75 | 1004.3 |
| 20260505065101 | 74 | 160 | 7.0 | 17.0 | 0.00 | 0.00 | 0.00 | 75 | 1004.5 |
| 20260505064600 | 74 | 214 | 5.0 | 12.0 | 0.00 | 0.00 | 0.00 | 75 | 1004.6 |
| 20260505064103 | 74 | 206 | 5.0 | 13.0 | 0.00 | 0.00 | 0.00 | 74 | 1004.6 |
| 20260505063559 | 74 | 143 | 6.0 | 16.0 | 0.00 | 0.00 | 0.00 | 74 | 1004.8 |
| 20260505063058 | 74 | 129 | 7.0 | 16.0 | 0.00 | 0.00 | 0.00 | 73 | 1004.8 |
| 20260505062559 | 74 | 72 | 6.0 | 16.0 | 0.00 | 0.00 | 0.00 | 73 | 1004.8 |
| 20260505062101 | 75 | 226 | 6.0 | 15.0 | 0.00 | 0.00 | 0.00 | 73 | 1004.8 |
| 20260505061601 | 75 | 205 | 6.0 | 15.0 | 0.00 | 0.00 | 0.00 | 73 | 1004.8 |
| 20260505061059 | 75 | 176 | 8.0 | 16.0 | 0.00 | 0.00 | 0.00 | 72 | 1004.9 |
| 20260505060600 | 75 | 211 | 6.0 | 16.0 | 0.00 | 0.00 | 0.00 | 73 | 1004.9 |
| 20260505060059 | 75 | 113 | 5.0 | 14.0 | 0.00 | 0.00 | 0.00 | 73 | 1004.9 |
| 20260505055600 | 75 | 209 | 7.0 | 14.0 | 0.00 | 0.00 | 0.00 | 73 | 1004.9 |
| 20260505055100 | 74 | 133 | 7.0 | 14.0 | 0.00 | 0.00 | 0.00 | 73 | 1004.8 |
| 20260505054602 | 74 | 225 | 6.0 | 14.0 | 0.00 | 0.00 | 0.00 | 74 | 1004.9 |
| 20260505054103 | 74 | 203 | 4.0 | 11.0 | 0.00 | 0.00 | 0.00 | 74 | 1004.8 |
| 20260505053559 | 74 | 176 | 6.0 | 12.0 | 0.00 | 0.00 | 0.00 | 75 | 1004.8 |
| 20260505053105 | 74 | 222 | 5.0 | 12.0 | 0.00 | 0.00 | 0.00 | 75 | 1004.8 |
| 20260505052559 | 74 | 175 | 5.0 | 11.0 | 0.00 | 0.00 | 0.00 | 75 | 1004.7 |
| 20260505052103 | 74 | 143 | 5.0 | 11.0 | 0.00 | 0.00 | 0.00 | 75 | 1004.8 |
| 20260505051559 | 74 | 226 | 6.0 | 10.0 | 0.00 | 0.00 | 0.00 | 75 | 1004.8 |
| 20260505051059 | 74 | 203 | 4.0 | 12.0 | 0.00 | 0.00 | 0.00 | 75 | 1004.8 |
| 20260505050559 | 74 | 167 | 4.0 | 12.0 | 0.00 | 0.00 | 0.00 | 75 | 1004.9 |
| 20260505041557 | 74 | 162 | 6.0 | 16.0 | 0.00 | 0.00 | 0.00 | 74 | 1005.1 |
| 20260505041059 | 74 | 201 | 7.0 | 16.0 | 0.00 | 0.00 | 0.00 | 74 | 1005.0 |
| 20260505040602 | 74 | 194 | 7.0 | 13.0 | 0.00 | 0.00 | 0.00 | 74 | 1005.0 |
| 20260505040105 | 74 | 220 | 6.0 | 13.0 | 0.00 | 0.00 | 0.00 | 74 | 1005.1 |
| 20260505035559 | 74 | 198 | 6.0 | 13.0 | 0.00 | 0.00 | 0.00 | 74 | 1005.1 |
| 20260505035059 | 74 | 140 | 6.0 | 13.0 | 0.00 | 0.00 | 0.00 | 73 | 1005.0 |
| 20260505034557 | 75 | 176 | 8.0 | 15.0 | 0.00 | 0.00 | 0.00 | 73 | 1005.0 |
| 20260505034059 | 74 | 198 | 6.0 | 15.0 | 0.00 | 0.00 | 0.00 | 73 | 1005.1 |
| 20260505033600 | 75 | 208 | 6.0 | 13.0 | 0.00 | 0.00 | 0.00 | 73 | 1005.0 |
| 20260505033100 | 74 | 160 | 7.0 | 13.0 | 0.00 | 0.00 | 0.00 | 73 | 1005.0 |
| 20260505032600 | 75 | 113 | 6.0 | 11.0 | 0.00 | 0.00 | 0.00 | 73 | 1004.9 |
| 20260505032059 | 75 | 134 | 6.0 | 12.0 | 0.00 | 0.00 | 0.00 | 73 | 1004.9 |
| 20260505031601 | 75 | 175 | 7.0 | 12.0 | 0.00 | 0.00 | 0.00 | 73 | 1005.0 |
| 20260505031059 | 75 | 122 | 7.0 | 12.0 | 0.00 | 0.00 | 0.00 | 73 | 1005.2 |
| 20260505030600 | 74 | 151 | 5.0 | 11.0 | 0.00 | 0.00 | 0.00 | 73 | 1005.2 |
| 20260505030104 | 75 | 72 | 6.0 | 12.0 | 0.00 | 0.00 | 0.00 | 73 | 1005.1 |
| 20260505025600 | 74 | 193 | 4.0 | 13.0 | 0.00 | 0.00 | 0.00 | 73 | 1005.1 |
| 20260505025101 | 74 | 174 | 4.0 | 13.0 | 0.00 | 0.00 | 0.00 | 73 | 1005.1 |
| 20260505024558 | 75 | 205 | 4.0 | 14.0 | 0.00 | 0.00 | 0.00 | 73 | 1005.2 |
| 20260505024102 | 75 | 150 | 6.0 | 14.0 | 0.00 | 0.00 | 0.00 | 73 | 1005.2 |
| 20260505023559 | 74 | 146 | 4.0 | 11.0 | 0.00 | 0.00 | 0.00 | 73 | 1005.2 |
| 20260505023108 | 75 | 122 | 4.0 | 11.0 | 0.00 | 0.00 | 0.00 | 72 | 1005.1 |
| 20260505022602 | 75 | 124 | 5.0 | 13.0 | 0.00 | 0.00 | 0.00 | 72 | 1005.1 |
| 20260505022100 | 75 | 141 | 4.0 | 13.0 | 0.00 | 0.00 | 0.00 | 72 | 1005.2 |
| 20260505021603 | 75 | 119 | 5.0 | 13.0 | 0.00 | 0.00 | 0.00 | 72 | 1005.2 |
| 20260505021059 | 75 | 162 | 5.0 | 10.0 | 0.00 | 0.00 | 0.00 | 72 | 1005.0 |
| 20260505020600 | 75 | 139 | 6.0 | 10.0 | 0.00 | 0.00 | 0.00 | 72 | 1005.1 |
| 20260505020104 | 74 | 178 | 5.0 | 11.0 | 0.00 | 0.00 | 0.00 | 72 | 1005.1 |
| 20260505015600 | 74 | 151 | 4.0 | 11.0 | 0.00 | 0.00 | 0.00 | 72 | 1005.0 |
| 20260505015102 | 75 | 205 | 5.0 | 12.0 | 0.00 | 0.00 | 0.00 | 72 | 1005.0 |
| 20260505014600 | 75 | 195 | 5.0 | 12.0 | 0.00 | 0.00 | 0.00 | 71 | 1004.9 |
| 20260505014059 | 75 | 152 | 6.0 | 12.0 | 0.00 | 0.00 | 0.00 | 71 | 1004.9 |
| 20260505013600 | 75 | 143 | 5.0 | 11.0 | 0.00 | 0.00 | 0.00 | 71 | 1005.0 |
| 20260505013057 | 75 | 173 | 6.0 | 14.0 | 0.00 | 0.00 | 0.00 | 71 | 1004.9 |
| 20260505012602 | 75 | 152 | 6.0 | 14.0 | 0.00 | 0.00 | 0.00 | 71 | 1005.1 |
| 20260505012059 | 75 | 207 | 6.0 | 13.0 | 0.00 | 0.00 | 0.00 | 70 | 1004.9 |
| 20260505011559 | 76 | 120 | 6.0 | 16.0 | 0.00 | 0.00 | 0.00 | 70 | 1005.0 |
| 20260505011101 | 76 | 96 | 8.0 | 16.0 | 0.00 | 0.00 | 0.00 | 70 | 1005.1 |
| 20260505010601 | 76 | 178 | 7.0 | 13.0 | 0.00 | 0.00 | 0.00 | 70 | 1005.0 |
| 20260505010105 | 76 | 161 | 6.0 | 12.0 | 0.00 | 0.00 | 0.00 | 70 | 1005.0 |
| 20260505005600 | 76 | 162 | 6.0 | 12.0 | 0.00 | 0.00 | 0.00 | 69 | 1004.9 |
| 20260505005100 | 76 | 159 | 5.0 | 12.0 | 0.00 | 0.00 | 0.00 | 69 | 1005.1 |
| 20260505004559 | 76 | 139 | 5.0 | 12.0 | 0.00 | 0.00 | 0.00 | 69 | 1005.0 |
| 20260505004059 | 76 | 143 | 5.0 | 12.0 | 0.00 | 0.00 | 0.00 | 68 | 1004.9 |
| 20260505003602 | 77 | 148 | 6.0 | 11.0 | 0.00 | 0.00 | 0.00 | 68 | 1005.0 |
| 20260505003106 | 77 | 200 | 7.0 | 15.0 | 0.00 | 0.00 | 0.00 | 68 | 1005.0 |
| 20260505002601 | 77 | 162 | 6.0 | 15.0 | 0.00 | 0.00 | 0.00 | 67 | 1005.0 |
| 20260505002100 | 77 | 219 | 8.0 | 14.0 | 0.00 | 0.00 | 0.00 | 67 | 1005.2 |
| 20260505001558 | 78 | 178 | 6.0 | 14.0 | 0.00 | 0.00 | 0.00 | 67 | 1005.0 |
| 20260505001059 | 78 | 207 | 6.0 | 14.0 | 0.00 | 0.00 | 0.00 | 66 | 1005.1 |
| 20260505000559 | 79 | 195 | 5.0 | 14.0 | 0.00 | 0.00 | 0.00 | 66 | 1005.4 |
| 20260505000112 | 79 | 174 | 7.0 | 13.0 | 0.00 | 0.00 | 0.00 | 65 | 1005.3 |
| 20260504235559 | 79 | 181 | 6.0 | 13.0 | 0.00 | 0.00 | 0.00 | 65 | 1005.3 |
| 20260504235100 | 79 | 194 | 7.0 | 14.0 | 0.00 | 0.00 | 0.00 | 65 | 1005.2 |
| 20260504234600 | 79 | 198 | 4.0 | 14.0 | 0.00 | 0.00 | 0.00 | 65 | 1005.2 |
| 20260504234100 | 79 | 179 | 4.0 | 14.0 | 0.00 | 0.00 | 0.00 | 65 | 1005.2 |
| 20260504233601 | 79 | 172 | 8.0 | 14.0 | 0.00 | 0.00 | 0.00 | 64 | 1005.2 |
| 20260504233105 | 79 | 142 | 7.0 | 15.0 | 0.00 | 0.00 | 0.00 | 65 | 1005.3 |
| 20260504232600 | 79 | 186 | 7.0 | 17.0 | 0.00 | 0.00 | 0.00 | 64 | 1005.4 |
| 20260504232100 | 79 | 229 | 6.0 | 17.0 | 0.00 | 0.00 | 0.00 | 64 | 1005.4 |
| 20260504231559 | 79 | 209 | 8.0 | 17.0 | 0.00 | 0.00 | 0.00 | 63 | 1005.4 |
| 20260504231059 | 80 | 174 | 7.0 | 20.0 | 0.00 | 0.00 | 0.00 | 63 | 1005.4 |
| 20260504230559 | 80 | 195 | 9.0 | 20.0 | 0.00 | 0.00 | 0.00 | 62 | 1005.4 |
| 20260504230100 | 80 | 214 | 9.0 | 20.0 | 0.00 | 0.00 | 0.00 | 62 | 1005.4 |
| 20260504225602 | 81 | 154 | 10.0 | 17.0 | 0.00 | 0.00 | 0.00 | 61 | 1005.5 |
| 20260504225102 | 81 | 149 | 9.0 | 16.0 | 0.00 | 0.00 | 0.00 | 61 | 1005.6 |
| 20260504224603 | 82 | 144 | 8.0 | 16.0 | 0.00 | 0.00 | 0.00 | 60 | 1005.6 |
| 20260504224100 | 82 | 168 | 7.0 | 15.0 | 0.00 | 0.00 | 0.00 | 60 | 1005.6 |
| 20260504223559 | 82 | 217 | 7.0 | 16.0 | 0.00 | 0.00 | 0.00 | 60 | 1005.6 |
| 20260504223058 | 82 | 130 | 8.0 | 16.0 | 0.00 | 0.00 | 0.00 | 61 | 1005.7 |
| 20260504222600 | 82 | 316 | 7.0 | 16.0 | 0.00 | 0.00 | 0.00 | 61 | 1005.7 |
| 20260504222100 | 82 | 203 | 7.0 | 16.0 | 0.00 | 0.00 | 0.00 | 61 | 1005.6 |
| 20260504221600 | 81 | 194 | 7.0 | 16.0 | 0.00 | 0.00 | 0.00 | 61 | 1005.7 |
| 20260504221100 | 82 | 201 | 8.0 | 18.0 | 0.00 | 0.00 | 0.00 | 60 | 1005.7 |
| 20260504220600 | 82 | 214 | 6.0 | 18.0 | 0.00 | 0.00 | 0.00 | 60 | 1005.7 |
| 20260504220118 | 82 | 144 | 8.0 | 17.0 | 0.00 | 0.00 | 0.00 | 59 | 1005.8 |
| 20260504215600 | 82 | 202 | 6.0 | 16.0 | 0.00 | 0.00 | 0.00 | 61 | 1005.8 |
| 20260504215104 | 81 | 159 | 7.0 | 15.0 | 0.00 | 0.00 | 0.00 | 60 | 1005.9 |
| 20260504214600 | 82 | 158 | 7.0 | 15.0 | 0.00 | 0.00 | 0.00 | 59 | 1006.0 |
| 20260504214100 | 82 | 210 | 7.0 | 17.0 | 0.00 | 0.00 | 0.00 | 59 | 1006.1 |
| 20260504213559 | 82 | 224 | 7.0 | 17.0 | 0.00 | 0.00 | 0.00 | 60 | 1006.1 |
| 20260504213102 | 82 | 191 | 7.0 | 18.0 | 0.00 | 0.00 | 0.00 | 59 | 1006.3 |
| 20260504212559 | 81 | 197 | 8.0 | 18.0 | 0.00 | 0.00 | 0.00 | 59 | 1006.5 |
| 20260504212101 | 81 | 201 | 7.0 | 15.0 | 0.00 | 0.00 | 0.00 | 60 | 1006.7 |
| 20260504211559 | 82 | 153 | 7.0 | 13.0 | 0.00 | 0.00 | 0.00 | 59 | 1006.7 |
| 20260504211100 | 82 | 161 | 6.0 | 17.0 | 0.00 | 0.00 | 0.00 | 60 | 1006.6 |
| 20260504210600 | 81 | 158 | 6.0 | 17.0 | 0.00 | 0.00 | 0.00 | 60 | 1007.0 |
| 20260504210100 | 81 | 214 | 8.0 | 17.0 | 0.00 | 0.00 | 0.00 | 60 | 1007.1 |
| 20260504205559 | 81 | 149 | 8.0 | 14.0 | 0.00 | 0.00 | 0.00 | 59 | 1007.1 |
| 20260504205059 | 81 | 131 | 6.0 | 14.0 | 0.00 | 0.00 | 0.00 | 60 | 1007.2 |
| 20260504204600 | 81 | 150 | 8.0 | 14.0 | 0.00 | 0.00 | 0.00 | 61 | 1007.3 |
| 20260504204059 | 81 | 160 | 6.0 | 14.0 | 0.00 | 0.00 | 0.00 | 59 | 1007.4 |
| 20260504203600 | 81 | 143 | 7.0 | 13.0 | 0.00 | 0.00 | 0.00 | 60 | 1007.5 |
| 20260504203100 | 81 | 150 | 5.0 | 14.0 | 0.00 | 0.00 | 0.00 | 62 | 1007.6 |
| 20260504202600 | 81 | 182 | 6.0 | 16.0 | 0.00 | 0.00 | 0.00 | 60 | 1007.6 |
| 20260504202059 | 81 | 167 | 8.0 | 16.0 | 0.00 | 0.00 | 0.00 | 58 | 1007.7 |
| 20260504201559 | 81 | 193 | 8.0 | 16.0 | 0.00 | 0.00 | 0.00 | 59 | 1007.7 |
| 20260504201100 | 81 | 209 | 7.0 | 16.0 | 0.00 | 0.00 | 0.00 | 60 | 1007.8 |
| 20260504200559 | 81 | 210 | 8.0 | 15.0 | 0.00 | 0.00 | 0.00 | 60 | 1008.0 |